User: anonymous   Login
Location: Glencliff
(36.1226°N, 86.7183°W)
Time: 09:21:03
(UTC+00:00)
Language:

Cosmos 2098 Rocket - Orbit

View from above orbital plane
View from above orbital plane
View from above satellite
View from above satellite

Ground track
Ground track

The orbit data is extracted from the following two-line orbital elements,

1 20775U 90078B   19290.72789702  .00001875  00000-0  91796-4 0  9995
2 20775  82.9270  67.5065 0575612 229.3010 125.6816 14.33613635470806
Epoch (UTC): 17 October 2019 17:28:10
Eccentricity: 0.0575612
inclination: 82.9270°
perigee height: 367 km
apogee height: 1191 km
right ascension of ascending node: 67.5065°
argument of perigee: 229.3010°
revolutions per day: 14.33613635
mean anomaly at epoch: 125.6816°
orbit number at epoch: 47080

The dashed part of the orbit path shows where the satellite is in the earth's shadow,  

DLR